User: anonymous   Login
Location: Unspecified
(0.0000°N, 0.0000°E)
Time: 07:17:11
(UTC+00:00)
Language:

FIREBIRD 3 - Orbit

View from above orbital plane
View from above orbital plane
View from above satellite
View from above satellite

Ground track
Ground track

The orbit data is extracted from the following two-line orbital elements,

1 40377U 15003B   17178.57472394 +.00001218 +00000-0 +56103-4 0  9996
2 40377 099.1228 004.6032 0135604 328.3990 030.9145 15.15390532132587
Epoch (UTC): 27 June 2017 13:47:36
Eccentricity: 0.0135604
inclination: 99.1228°
perigee height: 426 km
apogee height: 613 km
right ascension of ascending node: 4.6032°
argument of perigee: 328.3990°
revolutions per day: 15.15390532
mean anomaly at epoch: 30.9145°
orbit number at epoch: 13258

The dashed part of the orbit path shows where the satellite is in the earth's shadow,  

DLR